SM5FGQ-2 Weather Reports


time (UTC)temp
F
wind
direction
speed
knots
gust
knots
rain 1hr
in
rain 24hr
in
rain mn
in
humidity
%
barometer
mb
20260505223058 32 270 0.9 2.6 0.00 0.02 0.00 61 1007.7
20260505220049 33 270 0.9 1.7 0.00 0.02 0.00 60 1007.6
20260505213040 35 270 0.0 1.7 0.00 0.02 0.02 58 1007.4
20260505210051 36 270 0.9 1.7 0.00 0.02 0.02 55 1007.2
20260505203019 39 270 0.9 2.6 0.00 0.02 0.02 54 1007.1
20260505200111 41 270 0.9 2.6 0.00 0.02 0.02 52 1006.8
20260505193100 43 281 0.9 2.6 0.00 0.02 0.02 48 1006.5
20260505190049 48 286 0.9 4.3 0.00 0.02 0.02 34 1006.2
20260505183043 50 278 2.6 5.2 0.00 0.02 0.02 32 1005.9
20260505180112 52 270 3.5 7.0 0.00 0.02 0.02 31 1005.8
20260505173043 53 270 4.3 9.6 0.00 0.02 0.02 31 1005.6
20260505170112 55 269 4.3 10.4 0.00 0.02 0.02 30 1005.5
20260505163101 54 266 5.2 13.0 0.00 0.02 0.02 30 1005.4
20260505153043 55 280 6.1 13.9 0.00 0.02 0.02 28 1005.4
20260505140112 55 266 6.1 15.6 0.00 0.02 0.02 29 1005.3
20260505123103 54 256 5.2 12.2 0.00 0.02 0.02 31 1005.2
20260505120032 54 233 6.1 16.5 0.00 0.02 0.02 33 1005.1
20260505113021 53 253 5.2 12.2 0.00 0.02 0.02 36 1005.0
20260505110112 53 247 5.2 11.3 0.00 0.02 0.02 37 1004.8
20260505100114 52 268 5.2 11.3 0.00 0.02 0.02 42 1004.6
20260505093042 51 288 7.0 14.8 0.00 0.02 0.02 42 1004.5
20260505090032 52 259 5.2 11.3 0.00 0.02 0.02 41 1004.3
20260505083022 52 270 7.0 13.9 0.00 0.02 0.02 41 1004.1
20260505080132 54 260 7.0 13.9 0.00 0.02 0.02 39 1004.0
20260505073102 59 255 5.2 10.4 0.02 0.02 0.02 37 1003.7
20260505070053 59 262 6.1 11.3 0.02 0.03 0.02 37 1003.5
20260505063042 54 260 5.2 9.6 0.00 0.01 0.00 47 1003.4
20260505060034 48 287 4.3 9.6 0.00 0.01 0.00 61 1003.2
20260505053023 47 254 3.5 7.8 0.00 0.02 0.00 73 1003.0
20260505050115 46 244 2.6 7.0 0.00 0.03 0.00 76 1002.8
20260505040053 45 264 3.5 10.4 0.00 0.09 0.00 76 1002.2
20260505033043 45 233 3.5 7.8 0.00 0.16 0.00 79 1002.1
20260505030033 44 234 3.5 7.0 0.00 0.22 0.00 81 1002.1
20260505023023 45 219 3.5 7.8 0.00 0.30 0.00 79 1001.9
20260505020113 45 208 3.5 10.4 0.00 0.34 0.00 76 1001.8
20260505013103 45 230 2.6 8.7 0.00 0.36 0.00 74 1001.8
20260505010053 45 221 1.7 7.8 0.00 0.36 0.00 73 1001.8
20260505003043 45 211 1.7 4.3 0.00 0.36 0.00 70 1001.8
20260505000036 45 214 1.7 5.2 0.00 0.36 0.00 66 1001.8
20260504233026 45 199 0.9 4.3 0.00 0.36 0.00 59 1001.8
20260504230118 45 180 0.9 5.2 0.00 0.36 0.00 55 1001.9